Medicine Lodge, KS

9:19 PM CDT on September 28, 2016 (GMT -0500)
Medicine Lodge

Weather History for KP28 - November, 2013

Change the Weather History Date:

Friday, November 1, 2013

  Actual Average Record
Temperature  
Mean Temperature 52 °F 52 °F  
Max Temperature 64 °F 65 °F 86 °F (1990)
Min Temperature 40 °F 39 °F 22 °F (1899)
Degree Days  
Heating Degree Days 13 13  
Month to date heating degree days 13 13  
Since 1 July heating degree days 300 282  
Cooling Degree Days 0 0  
Month to date cooling degree days 0 0  
Year to date cooling degree days 1786 1769  
Growing Degree Days 2 (Base 50)    
Moisture  
Dew Point 36 °F    
Average Humidity 59    
Maximum Humidity 82    
Minimum Humidity 36    
Precipitation  
Precipitation 0.00 in 0.05 in 4.75 in (1998)
Month to date precipitation 0.00 0.05  
Year to date precipitation 24.56 25.34  
Snow  
Snow 0.00 in 0.00 in - ()
Month to date snowfall 0.0 0.0  
Since 1 July snowfall 0.0 0.0  
Since 1 September snowfall 0.0 0.0  
Snow Depth 0.00 in    
Sea Level Pressure  
Sea Level Pressure 29.95 in    
Wind  
Wind Speed 10 mph (NW)    
Max Wind Speed 25 mph    
Max Gust Speed 33 mph    
T = Trace of Precipitation, MM = Missing Value Source: NWS Daily Summary

Daily Weather History Graph

Daily Weather History Graph

Search for Another Location

Airport or City:

Trip Planner

Search our weather history database for the weather conditions in past years. The results will help you decide how hot, cold, wet, or windy it might be!

Date:

Astronomy

Nov. 01, 2013 Rise Set
Actual Time 7:59 AM CDT 6:35 PM CDT
Civil Twilight 7:32 AM CDT 7:02 PM CDT
Nautical Twilight 7:01 AM CDT 7:33 PM CDT
Astronomical Twilight 6:30 AM CDT 8:04 PM CDT
Moon 5:55 AM CDT (11/1) 5:28 PM CDT (11/1)
Length of Visible Light 11h 30m
Length of Day
10h 36m
Waning Crescent, 4% of the Moon is Illuminated
Nov 1
Waning Crescent
Nov 3
New
Nov 9
First Quarter
Nov 17
Full
Nov 25
Last Quarter

Hourly Weather History & Observations

Time (CDT) Temp. Windchill Dew Point Humidity Pressure Visibility Wind Dir Wind Speed Gust Speed Precip Events Conditions
12:56 AM 44.1 °F 42.5 °F 37.0 °F 76% 29.80 in - NNW 3.5 mph - N/A   Unknown
1:56 AM 45.0 °F 43.5 °F 37.0 °F 74% 29.81 in - NW 3.5 mph - N/A   Unknown
2:56 AM 43.0 °F 40.3 °F 37.0 °F 80% 29.81 in - North 4.6 mph - N/A   Unknown
3:56 AM 44.1 °F 42.5 °F 37.0 °F 76% 29.81 in - NW 3.5 mph - N/A   Unknown
4:56 AM 41.0 °F 37.1 °F 36.0 °F 82% 29.82 in - North 5.8 mph - N/A   Unknown
5:56 AM 42.1 °F 40.2 °F 35.1 °F 76% 29.84 in - Variable 3.5 mph - N/A   Unknown
6:56 AM 43.0 °F 39.5 °F 36.0 °F 76% 29.86 in - West 5.8 mph - N/A   Unknown
7:56 AM 45.0 °F 41.2 °F 36.0 °F 71% 29.87 in - West 6.9 mph - N/A   Unknown
8:56 AM 51.1 °F - 37.9 °F 61% 29.89 in - NNW 10.4 mph - N/A   Unknown
9:56 AM 57.0 °F - 39.0 °F 51% 29.92 in - NNW 13.8 mph 21.9 mph N/A   Unknown
10:56 AM 60.1 °F - 39.9 °F 47% 29.94 in - NNW 17.3 mph 27.6 mph N/A   Unknown
11:56 AM 61.0 °F - 39.0 °F 44% 29.95 in - NNW 19.6 mph - N/A   Unknown
12:56 PM 62.1 °F - 39.0 °F 43% 29.96 in - North 17.3 mph 28.8 mph N/A   Unknown
1:56 PM 63.0 °F - 39.0 °F 41% 29.95 in - NNW 20.7 mph 29.9 mph N/A   Unknown
2:56 PM 64.0 °F - 37.0 °F 37% 29.96 in - NW 20.7 mph 32.2 mph N/A   Unknown
3:56 PM 62.1 °F - 36.0 °F 38% 29.97 in - NNW 21.9 mph 28.8 mph N/A   Unknown
4:56 PM 61.0 °F - 34.0 °F 36% 30.00 in - NW 17.3 mph 26.5 mph N/A   Unknown
5:56 PM 61.0 °F - 33.1 °F 35% 30.01 in - NW 20.7 mph 33.4 mph N/A   Unknown
6:56 PM 52.0 °F - 36.0 °F 54% 30.04 in - NW 6.9 mph - N/A   Unknown
7:56 PM 51.1 °F - 35.1 °F 54% 30.06 in - Calm Calm - N/A   Unknown
8:56 PM 48.0 °F - 35.1 °F 61% 30.09 in - NW 6.9 mph - N/A   Unknown
9:56 PM 46.0 °F 43.1 °F 34.0 °F 63% 30.10 in - West 5.8 mph - N/A   Unknown
10:56 PM 44.1 °F 40.8 °F 35.1 °F 71% 30.13 in - West 5.8 mph - N/A   Unknown
11:56 PM 43.0 °F 40.3 °F 33.1 °F 68% 30.15 in - WNW 4.6 mph - N/A   Unknown